EDT,Max TemperatureF,Mean TemperatureF,Min TemperatureF,Max Dew PointF,MeanDew PointF,Min DewpointF,Max Humidity, Mean Humidity, Min Humidity, Max Sea Level PressureIn, Mean Sea Level PressureIn, Min Sea Level PressureIn, Max VisibilityMiles, Mean VisibilityMiles, Min VisibilityMiles, Max Wind SpeedMPH, Mean Wind SpeedMPH, Max Gust SpeedMPH,PrecipitationIn, CloudCover, Events, WindDirDegrees
2013-9-1,77,72,66,70,68,66,100,88,76,29.81,29.79,29.76,10,7,1,9,3,18,0.00,5,,243
2013-9-2,83,73,62,68,64,57,100,72,43,29.95,29.85,29.75,10,6,0,15,7,18,0.00,3,Fog,348
2013-9-3,76,64,52,59,54,52,100,73,46,30.09,30.04,29.96,10,10,7,10,3,14,0.00,2,,347
2013-9-4,84,67,50,61,55,50,100,69,37,30.16,30.11,30.06,10,6,0,12,4,16,0.00,1,Fog,260
2013-9-5,83,71,58,63,59,57,100,74,47,30.20,30.16,30.12,10,6,0,13,3,15,0.00,0,Fog,34
2013-9-6,85,71,57,63,56,49,87,65,42,30.22,30.16,30.06,10,10,10,9,4,12,0.00,1,,106
2013-9-7,88,75,61,65,62,58,93,67,40,30.05,29.99,29.93,10,10,8,15,4,22,0.00,1,,235
2013-9-8,88,77,66,68,66,64,93,70,46,29.97,29.95,29.91,10,10,5,18,4,22,0.00,4,,98
2013-9-9,93,79,65,72,68,64,100,75,49,29.97,29.93,29.87,10,9,3,16,6,24,0.00,0,,182
2013-9-10,96,84,71,72,68,60,100,66,31,30.08,30.02,29.95,10,9,5,14,4,23,0.00,0,,223
2013-9-11,96,84,71,71,65,55,93,60,26,30.10,30.04,29.98,10,9,3,18,7,26,0.00,0,,243
2013-9-12,84,72,60,70,65,48,100,68,36,30.02,29.98,29.88,10,8,2,24,8,35,0.80,5,Rain-Thunderstorm,294
2013-9-13,68,59,50,54,47,42,89,64,39,30.14,30.10,30.03,10,10,10,18,9,24,0.00,2,,10
2013-9-14,71,56,41,47,42,37,100,66,31,30.22,30.14,30.08,10,9,2,9,2,14,0.00,0,,106
2013-9-15,75,61,47,61,51,44,100,71,41,30.11,30.06,30.00,10,8,2,14,3,18,0.31,4,Rain,243
2013-9-16,67,59,50,59,55,50,97,80,63,30.31,30.22,30.10,10,9,6,15,7,18,0.00,6,,43
2013-9-17,74,61,48,53,50,46,93,71,49,30.33,30.25,30.15,10,10,8,13,7,17,0.00,0,,79
2013-9-18,82,70,57,66,59,53,93,74,54,30.13,30.07,29.99,10,10,8,10,4,15,0.00,5,,176
2013-9-19,84,74,64,70,67,64,100,83,65,30.05,29.99,29.87,10,8,1,16,7,25,2.21,5,Rain-Thunderstorm,182
2013-9-20,75,67,59,70,66,57,100,87,73,29.90,29.84,29.80,10,9,2,17,7,21,0.34,6,Rain,241
2013-9-21,70,60,50,54,49,45,100,71,42,29.93,29.85,29.80,10,10,10,18,7,23,0.00,1,,322
2013-9-22,69,57,44,49,46,44,100,71,42,30.04,29.99,29.94,10,8,1,12,4,16,0.00,1,,37
2013-9-23,73,59,44,48,45,43,93,67,40,30.12,30.06,30.03,10,10,10,12,6,14,0.00,0,,78
2013-9-24,75,61,47,52,48,45,93,70,46,30.08,29.99,29.91,10,10,10,14,8,25,0.00,0,,85
2013-9-25,77,65,52,57,51,47,89,68,46,29.95,29.91,29.88,10,10,10,10,6,13,0.00,1,,59
2013-9-26,78,63,48,56,51,49,96,66,36,30.07,30.03,29.95,10,9,4,10,4,14,0.00,0,,68
2013-9-27,80,65,49,54,50,47,100,68,35,30.18,30.12,30.07,10,10,10,13,3,16,0.00,0,,76
2013-9-28,82,66,50,57,53,47,93,68,42,30.13,30.06,29.99,10,10,10,15,6,21,0.00,1,,152
2013-9-29,72,63,54,61,56,50,93,73,53,30.03,30.00,29.96,10,8,3,15,5,21,0.27,6,Rain,331
2013-9-30,75,63,50,60,55,49,100,77,53,30.02,29.98,29.92,10,9,4,12,3,16,0.00,5,,221